EW8927 Weather Reports


time (UTC)temp
F
wind
direction
speed
knots
gust
knots
rain 1hr
in
rain 24hr
in
rain mn
in
humidity
%
barometer
mb
20260506134506 54 302 0.0 0.9 0.00 0.00 0.00 59 1013.3
20260506133001 53 279 0.0 0.0 0.00 0.00 0.00 60 1013.0
20260506131558 51 279 0.0 1.7 0.00 0.00 0.00 64 1012.9
20260506130055 51 279 0.0 1.7 0.00 0.00 0.00 63 1012.6
20260506124551 51 279 0.0 0.9 0.00 0.00 0.00 63 1012.5
20260506123048 52 277 0.9 2.6 0.00 0.00 0.00 61 1012.2
20260506121555 53 301 0.0 2.6 0.00 0.00 0.00 60 1012.2
20260506120107 54 223 1.7 7.0 0.00 0.00 0.00 58 1012.1
20260506114544 55 360 2.6 7.0 0.00 0.00 0.00 58 1012.0
20260506113038 55 360 2.6 6.1 0.00 0.00 0.00 56 1011.9
20260506111539 55 225 2.6 7.0 0.00 0.00 0.00 55 1011.8
20260506110035 55 221 4.3 7.8 0.00 0.00 0.00 56 1011.7
20260506104534 55 190 0.0 7.0 0.00 0.00 0.00 56 1011.7
20260506103035 55 198 0.9 4.3 0.00 0.00 0.00 56 1011.6
20260506101530 55 199 1.7 5.2 0.00 0.00 0.00 57 1011.4
20260506100033 55 234 2.6 5.2 0.00 0.00 0.00 56 1011.4
20260506094533 56 360 2.6 5.2 0.00 0.00 0.00 55 1011.2
20260506093041 56 360 3.5 6.1 0.00 0.00 0.00 55 1011.2
20260506091525 56 217 3.5 9.6 0.00 0.00 0.00 55 1011.1
20260506090023 56 191 3.5 8.7 0.00 0.00 0.00 55 1011.1
20260506084521 56 202 5.2 8.7 0.00 0.00 0.00 54 1011.1
20260506083019 57 232 3.5 7.8 0.00 0.00 0.00 53 1011.1
20260506081516 57 360 2.6 7.8 0.00 0.00 0.00 52 1011.2
20260506073009 59 196 5.2 10.4 0.00 0.00 0.00 49 1010.9
20260506071508 59 360 7.0 10.4 0.00 0.00 0.00 48 1010.8
20260506061603 59 212 6.1 10.4 0.00 0.00 0.00 48 1010.1
20260506050113 60 189 6.1 12.2 0.00 0.00 0.00 47 1009.3
20260506044559 60 190 6.1 12.2 0.00 0.00 0.00 47 1009.2
20260506043051 61 212 6.1 10.4 0.00 0.00 0.00 46 1009.1
20260506041553 61 208 5.2 10.4 0.00 0.00 0.00 46 1008.8
20260506040047 62 189 4.3 12.2 0.00 0.00 0.00 45 1008.7
20260506034545 63 227 5.2 13.9 0.00 0.00 0.00 43 1008.3
20260506033043 63 196 5.2 13.0 0.00 0.00 0.00 42 1007.9
20260506031555 64 205 6.1 13.0 0.00 0.00 0.00 41 1007.7
20260506030057 65 201 6.1 14.8 0.00 0.00 0.00 39 1007.1
20260506024541 67 360 7.0 14.8 0.00 0.00 0.00 38 1006.8
20260506023041 68 360 3.5 8.7 0.00 0.00 0.00 34 1006.6
20260506021540 69 202 5.2 13.0 0.00 0.00 0.00 33 1006.4
20260506020039 70 175 4.3 8.7 0.00 0.00 0.00 34 1006.3
20260506014539 70 192 4.3 8.7 0.00 0.00 0.00 34 1006.2
20260506013044 71 232 6.1 10.4 0.00 0.00 0.00 32 1006.0
20260506011538 72 136 4.3 10.4 0.00 0.00 0.00 30 1006.0
20260506010037 73 269 1.7 5.2 0.00 0.00 0.00 29 1006.0
20260506004604 73 292 2.6 6.1 0.00 0.00 0.00 28 1005.8
20260506003036 74 211 2.6 5.2 0.00 0.00 0.00 28 1005.7
20260506001535 74 133 3.5 7.0 0.00 0.00 0.00 27 1005.6
20260506000034 75 308 0.9 6.1 0.00 0.00 0.00 27 1005.7
20260505234603 75 287 4.3 7.0 0.00 0.00 0.00 27 1005.7
20260505233033 75 327 2.6 7.0 0.00 0.00 0.00 28 1005.6
20260505231535 75 348 3.5 11.3 0.00 0.00 0.00 28 1005.6
20260505230030 75 272 1.7 3.5 0.00 0.00 0.00 26 1005.8
20260505224532 74 126 3.5 7.0 0.00 0.00 0.00 26 1006.0
20260505223027 71 198 1.7 7.8 0.00 0.00 0.00 29 1006.2
20260505221528 71 90 1.7 7.0 0.00 0.00 0.00 28 1006.2
20260505220025 72 98 2.6 6.1 0.00 0.00 0.00 27 1006.6
20260505214525 72 321 0.9 5.2 0.00 0.00 0.00 28 1006.7
20260505213024 73 257 0.9 6.1 0.00 0.00 0.00 27 1006.8
20260505211522 75 240 3.5 7.0 0.00 0.00 0.00 26 1006.8
20260505210022 75 148 5.2 10.4 0.00 0.00 0.00 27 1006.9
20260505204525 75 121 2.6 7.8 0.00 0.00 0.00 27 1007.0
20260505203018 73 265 3.5 8.7 0.00 0.00 0.00 29 1007.0
20260505201517 73 194 3.5 7.8 0.00 0.00 0.00 29 1007.1
20260505200022 72 154 2.6 7.8 0.00 0.00 0.00 30 1007.2
20260505194512 71 360 0.9 7.8 0.00 0.00 0.00 31 1007.3
20260505193011 71 139 5.2 9.6 0.00 0.00 0.00 32 1007.5
20260505191508 70 138 6.1 14.8 0.00 0.00 0.00 33 1007.5
20260505190009 69 315 2.6 14.8 0.00 0.00 0.00 33 1007.6
20260505184508 68 23 2.6 9.6 0.00 0.00 0.00 35 1007.7
20260505183010 69 92 7.8 13.9 0.00 0.00 0.00 35 1007.7
20260505181600 68 101 4.3 12.2 0.00 0.00 0.00 34 1007.8
20260505174555 68 64 1.7 5.2 0.00 0.00 0.00 32 1007.8
20260505173053 69 155 2.6 4.3 0.00 0.00 0.00 33 1007.7
20260505171548 67 62 0.9 6.1 0.00 0.00 0.00 35 1007.8
20260505170045 65 193 1.7 7.8 0.00 0.00 0.00 37 1007.8
20260505164540 63 360 0.9 6.1 0.00 0.00 0.00 40 1007.7
20260505163035 63 63 3.5 8.7 0.00 0.00 0.00 41 1007.7
20260505161531 64 103 3.5 7.0 0.00 0.00 0.00 41 1007.6
20260505153022 60 360 1.7 4.3 0.00 0.00 0.00 44 1007.6
20260505151519 59 360 1.7 3.5 0.00 0.00 0.00 45 1007.5
20260505140117 52 313 0.0 3.5 0.00 0.00 0.00 56 1007.2